Year,Month,Day,Hour,Minute,Value (Times are PST for temperature in C)
2018,08,11,00,00,21.20
2018,08,11,00,01,21.20
2018,08,11,00,02,21.20
2018,08,11,00,03,21.20
2018,08,11,00,04,21.20
2018,08,11,00,05,21.20
2018,08,11,00,06,21.20
2018,08,11,00,07,21.20
2018,08,11,00,08,21.20
2018,08,11,00,09,21.20
2018,08,11,00,10,21.20
2018,08,11,00,11,21.20
2018,08,11,00,12,21.20
2018,08,11,00,13,21.20
2018,08,11,00,14,21.20
2018,08,11,00,15,21.20
2018,08,11,00,16,21.20
2018,08,11,00,17,21.20
2018,08,11,00,18,21.20
2018,08,11,00,19,21.20
2018,08,11,00,20,21.20
2018,08,11,00,21,21.20
2018,08,11,00,22,21.20
2018,08,11,00,23,21.20
2018,08,11,00,24,21.20
2018,08,11,00,25,21.20
2018,08,11,00,26,21.20
2018,08,11,00,27,21.20
2018,08,11,00,28,21.20
2018,08,11,00,29,21.20
2018,08,11,00,30,21.20
2018,08,11,00,31,21.20
2018,08,11,00,32,21.20
2018,08,11,00,33,21.20
2018,08,11,00,34,21.20
2018,08,11,00,35,21.20
2018,08,11,00,36,21.10
2018,08,11,00,37,21.10
2018,08,11,00,38,21.10
2018,08,11,00,39,21.10
2018,08,11,00,40,21.00
2018,08,11,00,41,21.00
2018,08,11,00,42,21.00
2018,08,11,00,43,21.00
2018,08,11,00,44,21.00
2018,08,11,00,45,20.90
2018,08,11,00,46,20.90
2018,08,11,00,47,20.90
2018,08,11,00,48,20.80
2018,08,11,00,49,20.80
2018,08,11,00,50,20.80
2018,08,11,00,51,20.80
2018,08,11,00,52,20.80
2018,08,11,00,53,20.70
2018,08,11,00,54,20.70
2018,08,11,00,55,20.70
2018,08,11,00,56,20.70
2018,08,11,00,57,20.60
2018,08,11,00,58,20.60
2018,08,11,00,59,20.60
2018,08,11,01,00,20.50
2018,08,11,01,01,20.50
2018,08,11,01,02,20.50
2018,08,11,01,03,20.40
2018,08,11,01,04,20.40
2018,08,11,01,05,20.30
2018,08,11,01,06,20.30
2018,08,11,01,07,20.20
2018,08,11,01,08,20.10
2018,08,11,01,09,20.10
2018,08,11,01,10,20.00
2018,08,11,01,11,20.00
2018,08,11,01,12,19.90
2018,08,11,01,13,19.90
2018,08,11,01,14,19.80
2018,08,11,01,15,19.80
2018,08,11,01,16,19.70
2018,08,11,01,17,19.70
2018,08,11,01,18,19.70
2018,08,11,01,19,19.60
2018,08,11,01,20,19.60
2018,08,11,01,21,19.60
2018,08,11,01,22,19.60
2018,08,11,01,23,19.60
2018,08,11,01,24,19.50
2018,08,11,01,25,19.50
2018,08,11,01,26,19.50
2018,08,11,01,27,19.50
2018,08,11,01,28,19.40
2018,08,11,01,29,19.40
2018,08,11,01,30,19.40
2018,08,11,01,31,19.40
2018,08,11,01,32,19.30
2018,08,11,01,33,19.30
2018,08,11,01,34,19.30
2018,08,11,01,35,19.30
2018,08,11,01,36,19.30
2018,08,11,01,37,19.30
2018,08,11,01,38,19.30
2018,08,11,01,39,19.30
2018,08,11,01,40,19.20
2018,08,11,01,41,19.20
2018,08,11,01,42,19.20
2018,08,11,01,43,19.20
2018,08,11,01,44,19.20
2018,08,11,01,45,19.20
2018,08,11,01,46,19.20
2018,08,11,01,47,19.10
2018,08,11,01,48,19.10
2018,08,11,01,49,19.10
2018,08,11,01,50,19.10
2018,08,11,01,51,19.10
2018,08,11,01,52,19.10
2018,08,11,01,53,19.00
2018,08,11,01,54,19.00
2018,08,11,01,55,19.00
2018,08,11,01,56,18.90
2018,08,11,01,57,18.90
2018,08,11,01,58,18.90
2018,08,11,01,59,18.90
2018,08,11,02,00,18.80
2018,08,11,02,01,18.80
2018,08,11,02,02,18.80
2018,08,11,02,03,18.70
2018,08,11,02,04,18.70
2018,08,11,02,05,18.70
2018,08,11,02,06,18.60
2018,08,11,02,07,18.60
2018,08,11,02,08,18.60
2018,08,11,02,09,18.60
2018,08,11,02,10,18.60
2018,08,11,02,11,18.50
2018,08,11,02,12,18.50
2018,08,11,02,13,18.50
2018,08,11,02,14,18.40
2018,08,11,02,15,18.40
2018,08,11,02,16,18.40
2018,08,11,02,17,18.30
2018,08,11,02,18,18.30
2018,08,11,02,19,18.30
2018,08,11,02,20,18.30
2018,08,11,02,21,18.30
2018,08,11,02,22,18.30
2018,08,11,02,23,18.30
2018,08,11,02,24,18.20
2018,08,11,02,25,18.20
2018,08,11,02,26,18.20
2018,08,11,02,27,18.10
2018,08,11,02,28,18.10
2018,08,11,02,29,18.10
2018,08,11,02,30,18.00
2018,08,11,02,31,18.00
2018,08,11,02,32,18.00
2018,08,11,02,33,17.90
2018,08,11,02,34,17.90
2018,08,11,02,35,17.90
2018,08,11,02,36,17.80
2018,08,11,02,37,17.80
2018,08,11,02,38,17.80
2018,08,11,02,39,17.80
2018,08,11,02,40,17.80
2018,08,11,02,41,17.70
2018,08,11,02,42,17.70
2018,08,11,02,43,17.70
2018,08,11,02,44,17.70
2018,08,11,02,45,17.60
2018,08,11,02,46,17.60
2018,08,11,02,47,17.60
2018,08,11,02,48,17.60
2018,08,11,02,49,17.60
2018,08,11,02,50,17.50
2018,08,11,02,51,17.50
2018,08,11,02,52,17.50
2018,08,11,02,53,17.50
2018,08,11,02,54,17.50
2018,08,11,02,55,17.40
2018,08,11,02,56,17.40
2018,08,11,02,57,17.40
2018,08,11,02,58,17.40
2018,08,11,02,59,17.30
2018,08,11,03,00,17.30
2018,08,11,03,01,17.20
2018,08,11,03,02,17.20
2018,08,11,03,03,17.20
2018,08,11,03,04,17.20
2018,08,11,03,05,17.10
2018,08,11,03,06,17.10
2018,08,11,03,07,17.10
2018,08,11,03,08,17.00
2018,08,11,03,09,17.00
2018,08,11,03,10,17.00
2018,08,11,03,11,16.90
2018,08,11,03,12,16.90
2018,08,11,03,13,16.90
2018,08,11,03,14,16.80
2018,08,11,03,15,16.90
2018,08,11,03,16,16.80
2018,08,11,03,17,16.80
2018,08,11,03,18,16.80
2018,08,11,03,19,16.80
2018,08,11,03,20,16.80
2018,08,11,03,21,16.80
2018,08,11,03,22,16.80
2018,08,11,03,23,16.80
2018,08,11,03,24,16.80
2018,08,11,03,25,16.80
2018,08,11,03,26,16.80
2018,08,11,03,27,16.80
2018,08,11,03,28,16.80
2018,08,11,03,29,16.70
2018,08,11,03,30,16.70
2018,08,11,03,31,16.70
2018,08,11,03,32,16.70
2018,08,11,03,33,16.70
2018,08,11,03,34,16.70
2018,08,11,03,35,16.60
2018,08,11,03,36,16.60
2018,08,11,03,37,16.60
2018,08,11,03,38,16.60
2018,08,11,03,39,16.60
2018,08,11,03,40,16.60
2018,08,11,03,41,16.50
2018,08,11,03,42,16.50
2018,08,11,03,43,16.50
2018,08,11,03,44,16.50
2018,08,11,03,45,16.50
2018,08,11,03,46,16.50
2018,08,11,03,47,16.50
2018,08,11,03,48,16.40
2018,08,11,03,49,16.40
2018,08,11,03,50,16.40
2018,08,11,03,51,16.40
2018,08,11,03,52,16.40
2018,08,11,03,53,16.40
2018,08,11,03,54,16.40
2018,08,11,03,55,16.30
2018,08,11,03,56,16.30
2018,08,11,03,57,16.30
2018,08,11,03,58,16.30
2018,08,11,03,59,16.30
2018,08,11,04,00,16.30
2018,08,11,04,01,16.20
2018,08,11,04,02,16.20
2018,08,11,04,03,16.20
2018,08,11,04,04,16.20
2018,08,11,04,05,16.20
2018,08,11,04,06,16.20
2018,08,11,04,07,16.20
2018,08,11,04,08,16.20
2018,08,11,04,09,16.20
2018,08,11,04,10,16.20
2018,08,11,04,11,16.20
2018,08,11,04,12,16.20
2018,08,11,04,13,16.20
2018,08,11,04,14,16.10
2018,08,11,04,15,16.10
2018,08,11,04,16,16.10
2018,08,11,04,17,16.10
2018,08,11,04,18,16.20
2018,08,11,04,19,16.10
2018,08,11,04,20,16.10
2018,08,11,04,21,16.20
2018,08,11,04,22,16.10
2018,08,11,04,23,16.10
2018,08,11,04,24,16.20
2018,08,11,04,25,16.20
2018,08,11,04,26,16.10
2018,08,11,04,27,16.20
2018,08,11,04,28,16.20
2018,08,11,04,29,16.20
2018,08,11,04,30,16.20
2018,08,11,04,31,16.20
2018,08,11,04,32,16.20
2018,08,11,04,33,16.20
2018,08,11,04,34,16.20
2018,08,11,04,35,16.20
2018,08,11,04,36,16.20
2018,08,11,04,37,16.20
2018,08,11,04,38,16.20
2018,08,11,04,39,16.20
2018,08,11,04,40,16.20
2018,08,11,04,41,16.20
2018,08,11,04,42,16.20
2018,08,11,04,43,16.20
2018,08,11,04,44,16.20
2018,08,11,04,45,16.20
2018,08,11,04,46,16.20
2018,08,11,04,47,16.20
2018,08,11,04,48,16.20
2018,08,11,04,49,16.10
2018,08,11,04,50,16.10
2018,08,11,04,51,16.10
2018,08,11,04,52,16.10
2018,08,11,04,53,16.10
2018,08,11,04,54,16.10
2018,08,11,04,55,16.10
2018,08,11,04,56,16.10
2018,08,11,04,57,16.10
2018,08,11,04,58,16.10
2018,08,11,04,59,16.10
2018,08,11,05,00,16.10
2018,08,11,05,01,16.10
2018,08,11,05,02,16.10
2018,08,11,05,03,16.00
2018,08,11,05,04,16.00
2018,08,11,05,05,16.00
2018,08,11,05,06,16.00
2018,08,11,05,07,16.00
2018,08,11,05,08,16.00
2018,08,11,05,09,16.00
2018,08,11,05,10,16.00
2018,08,11,05,11,16.00
2018,08,11,05,12,16.00
2018,08,11,05,13,16.00
2018,08,11,05,14,16.00
2018,08,11,05,15,16.00
2018,08,11,05,16,16.10
2018,08,11,05,17,16.10
2018,08,11,05,18,16.10
2018,08,11,05,19,16.10
2018,08,11,05,20,16.10
2018,08,11,05,21,16.00
2018,08,11,05,22,16.00
2018,08,11,05,23,16.00
2018,08,11,05,24,16.10
2018,08,11,05,25,16.10
2018,08,11,05,26,16.10
2018,08,11,05,27,16.10
2018,08,11,05,28,16.10
2018,08,11,05,29,16.10
2018,08,11,05,30,16.10
2018,08,11,05,31,16.10
2018,08,11,05,32,16.10
2018,08,11,05,33,16.10
2018,08,11,05,34,16.10
2018,08,11,05,35,16.10
2018,08,11,05,36,16.10
2018,08,11,05,37,16.20
2018,08,11,05,38,16.10
2018,08,11,05,39,16.20
2018,08,11,05,40,16.20
2018,08,11,05,41,16.20
2018,08,11,05,42,16.20
2018,08,11,05,43,16.20
2018,08,11,05,44,16.20
2018,08,11,05,45,16.20
2018,08,11,05,46,16.20
2018,08,11,05,47,16.20
2018,08,11,05,48,16.20
2018,08,11,05,49,16.20
2018,08,11,05,50,16.20
2018,08,11,05,51,16.30
2018,08,11,05,52,16.30
2018,08,11,05,53,16.30
2018,08,11,05,54,16.30
2018,08,11,05,55,16.30
2018,08,11,05,56,16.30
2018,08,11,05,57,16.30
2018,08,11,05,58,16.30
2018,08,11,05,59,16.30
2018,08,11,06,00,16.30
2018,08,11,06,01,16.40
2018,08,11,06,02,16.40
2018,08,11,06,03,16.40
2018,08,11,06,04,16.40
2018,08,11,06,05,16.40
2018,08,11,06,06,16.40
2018,08,11,06,07,16.40
2018,08,11,06,08,16.40
2018,08,11,06,09,16.40
2018,08,11,06,10,16.50
2018,08,11,06,11,16.50
2018,08,11,06,12,16.50
2018,08,11,06,13,16.50
2018,08,11,06,14,16.50
2018,08,11,06,15,16.50
2018,08,11,06,16,16.50
2018,08,11,06,17,16.50
2018,08,11,06,18,16.50
2018,08,11,06,19,16.50
2018,08,11,06,20,16.50
2018,08,11,06,21,16.50
2018,08,11,06,22,16.50
2018,08,11,06,23,16.50
2018,08,11,06,24,16.50
2018,08,11,06,25,16.50
2018,08,11,06,26,16.50
2018,08,11,06,27,16.50
2018,08,11,06,28,16.50
2018,08,11,06,29,16.50
2018,08,11,06,30,16.50
2018,08,11,06,31,16.50
2018,08,11,06,32,16.50
2018,08,11,06,33,16.50
2018,08,11,06,34,16.50
2018,08,11,06,35,16.50
2018,08,11,06,36,16.50
2018,08,11,06,37,16.50
2018,08,11,06,38,16.50
2018,08,11,06,39,16.50
2018,08,11,06,40,16.50
2018,08,11,06,41,16.50
2018,08,11,06,42,16.50
2018,08,11,06,43,16.50
2018,08,11,06,44,16.50
2018,08,11,06,45,16.50
2018,08,11,06,46,16.50
2018,08,11,06,47,16.50
2018,08,11,06,48,16.50
2018,08,11,06,49,16.50
2018,08,11,06,50,16.50
2018,08,11,06,51,16.50
2018,08,11,06,52,16.50
2018,08,11,06,53,16.50
2018,08,11,06,54,16.50
2018,08,11,06,55,16.50
2018,08,11,06,56,16.50
2018,08,11,06,57,16.50
2018,08,11,06,58,16.50
2018,08,11,06,59,16.50
2018,08,11,07,00,16.50
2018,08,11,07,01,16.50
2018,08,11,07,02,16.60
2018,08,11,07,03,16.60
2018,08,11,07,04,16.60
2018,08,11,07,05,16.60
2018,08,11,07,06,16.60
2018,08,11,07,07,16.60
2018,08,11,07,08,16.60
2018,08,11,07,09,16.60
2018,08,11,07,10,16.70
2018,08,11,07,11,16.70
2018,08,11,07,12,16.70
2018,08,11,07,13,16.70
2018,08,11,07,14,16.70
2018,08,11,07,15,16.70
2018,08,11,07,16,16.80
2018,08,11,07,17,16.80
2018,08,11,07,18,16.80
2018,08,11,07,19,16.80
2018,08,11,07,20,16.80
2018,08,11,07,21,16.90
2018,08,11,07,22,16.90
2018,08,11,07,23,16.90
2018,08,11,07,24,16.90
2018,08,11,07,25,16.90
2018,08,11,07,26,17.00
2018,08,11,07,27,16.90
2018,08,11,07,28,16.90
2018,08,11,07,29,16.90
2018,08,11,07,30,16.90
2018,08,11,07,31,16.90
2018,08,11,07,32,16.90
2018,08,11,07,33,16.90
2018,08,11,07,34,16.90
2018,08,11,07,35,16.90
2018,08,11,07,36,16.90
2018,08,11,07,37,16.90
2018,08,11,07,38,16.90
2018,08,11,07,39,16.90
2018,08,11,07,40,16.90
2018,08,11,07,41,16.90
2018,08,11,07,42,16.90
2018,08,11,07,43,16.90
2018,08,11,07,44,16.90
2018,08,11,07,45,17.00
2018,08,11,07,46,17.00
2018,08,11,07,47,17.00
2018,08,11,07,48,17.00
2018,08,11,07,49,17.00
2018,08,11,07,50,17.00
2018,08,11,07,51,17.00
2018,08,11,07,52,17.10
2018,08,11,07,53,17.10
2018,08,11,07,54,17.10
2018,08,11,07,55,17.10
2018,08,11,07,56,17.10
2018,08,11,07,57,17.10
2018,08,11,07,58,17.10
2018,08,11,07,59,17.10
2018,08,11,08,00,17.10
2018,08,11,08,01,17.10
2018,08,11,08,02,17.20
2018,08,11,08,03,17.20
2018,08,11,08,04,17.20
2018,08,11,08,05,17.20
2018,08,11,08,06,17.20
2018,08,11,08,07,17.20
2018,08,11,08,08,17.20
2018,08,11,08,09,17.20
2018,08,11,08,10,17.20
2018,08,11,08,11,17.20
2018,08,11,08,12,17.20
2018,08,11,08,13,17.30
2018,08,11,08,14,17.30
2018,08,11,08,15,17.30
2018,08,11,08,16,17.30
2018,08,11,08,17,17.30
2018,08,11,08,18,17.30
2018,08,11,08,19,17.30
2018,08,11,08,20,17.40
2018,08,11,08,21,17.40
2018,08,11,08,22,17.40
2018,08,11,08,23,17.40
2018,08,11,08,24,17.40
2018,08,11,08,25,17.40
2018,08,11,08,26,17.40
2018,08,11,08,27,17.40
2018,08,11,08,28,17.40
2018,08,11,08,29,17.40
2018,08,11,08,30,17.50
2018,08,11,08,31,17.50
2018,08,11,08,32,17.50
2018,08,11,08,33,17.50
2018,08,11,08,34,17.50
2018,08,11,08,35,17.50
2018,08,11,08,36,17.60
2018,08,11,08,37,17.60
2018,08,11,08,38,17.60
2018,08,11,08,39,17.60
2018,08,11,08,40,17.60
2018,08,11,08,41,17.60
2018,08,11,08,42,17.70
2018,08,11,08,43,17.70
2018,08,11,08,44,17.70
2018,08,11,08,45,17.70
2018,08,11,08,46,17.70
2018,08,11,08,47,17.70
2018,08,11,08,48,17.80
2018,08,11,08,49,17.80
2018,08,11,08,50,17.80
2018,08,11,08,51,17.90
2018,08,11,08,52,17.90
2018,08,11,08,53,17.90
2018,08,11,08,54,17.90
2018,08,11,08,55,17.90
2018,08,11,08,56,17.90
2018,08,11,08,57,17.90
2018,08,11,08,58,17.80
2018,08,11,08,59,17.80
2018,08,11,09,00,17.80
2018,08,11,09,01,17.80
2018,08,11,09,02,17.80
2018,08,11,09,03,17.80
2018,08,11,09,04,17.70
2018,08,11,09,05,17.70
2018,08,11,09,06,17.70
2018,08,11,09,07,17.70
2018,08,11,09,08,17.70
2018,08,11,09,09,17.70
2018,08,11,09,10,17.70
2018,08,11,09,11,17.70
2018,08,11,09,12,17.70
2018,08,11,09,13,17.60
2018,08,11,09,14,17.60
2018,08,11,09,15,17.60
2018,08,11,09,16,17.60
2018,08,11,09,17,17.60
2018,08,11,09,18,17.60
2018,08,11,09,19,17.60
2018,08,11,09,20,17.60
2018,08,11,09,21,17.60
2018,08,11,09,22,17.60
2018,08,11,09,23,17.60
2018,08,11,09,24,17.60
2018,08,11,09,25,17.50
2018,08,11,09,26,17.50
2018,08,11,09,27,17.50
2018,08,11,09,28,17.40
2018,08,11,09,29,17.40
2018,08,11,09,30,17.40
2018,08,11,09,31,17.40
2018,08,11,09,32,17.40
2018,08,11,09,33,17.40
2018,08,11,09,34,17.50
2018,08,11,09,35,17.40
2018,08,11,09,36,17.50
2018,08,11,09,37,17.50
2018,08,11,09,38,17.50
2018,08,11,09,39,17.50
2018,08,11,09,40,17.40
2018,08,11,09,41,17.40
2018,08,11,09,42,17.40
2018,08,11,09,43,17.40
2018,08,11,09,44,17.40
2018,08,11,09,45,17.40
2018,08,11,09,46,17.40
2018,08,11,09,47,17.40
2018,08,11,09,48,17.30
2018,08,11,09,49,17.30
2018,08,11,09,50,17.30
2018,08,11,09,51,17.30
2018,08,11,09,52,17.40
2018,08,11,09,53,17.40
2018,08,11,09,54,17.40
2018,08,11,09,55,17.50
2018,08,11,09,56,17.50
2018,08,11,09,57,17.60
2018,08,11,09,58,17.60
2018,08,11,09,59,17.70
2018,08,11,10,00,17.70
2018,08,11,10,01,17.60
2018,08,11,10,02,17.60
2018,08,11,10,03,17.60
2018,08,11,10,04,17.70
2018,08,11,10,05,17.70
2018,08,11,10,06,17.70
2018,08,11,10,07,17.80
2018,08,11,10,08,17.80
2018,08,11,10,09,17.90
2018,08,11,10,10,17.90
2018,08,11,10,11,18.00
2018,08,11,10,12,18.00
2018,08,11,10,13,18.10
2018,08,11,10,14,18.10
2018,08,11,10,15,18.20
2018,08,11,10,16,18.20
2018,08,11,10,17,18.20
2018,08,11,10,18,18.20
2018,08,11,10,19,18.30
2018,08,11,10,20,18.30
2018,08,11,10,21,18.30
2018,08,11,10,22,18.40
2018,08,11,10,23,18.40
2018,08,11,10,24,18.50
2018,08,11,10,25,18.50
2018,08,11,10,26,18.60
2018,08,11,10,27,18.60
2018,08,11,10,28,18.60
2018,08,11,10,29,18.60
2018,08,11,10,30,18.60
2018,08,11,10,31,18.60
2018,08,11,10,32,18.70
2018,08,11,10,33,18.70
2018,08,11,10,34,18.70
2018,08,11,10,35,18.70
2018,08,11,10,36,18.70
2018,08,11,10,37,18.80
2018,08,11,10,38,18.80
2018,08,11,10,39,18.80
2018,08,11,10,40,18.80
2018,08,11,10,41,18.80
2018,08,11,10,42,18.80
2018,08,11,10,43,18.80
2018,08,11,10,44,18.90
2018,08,11,10,45,18.90
2018,08,11,10,46,18.90
2018,08,11,10,47,19.00
2018,08,11,10,48,19.00
2018,08,11,10,49,19.00
2018,08,11,10,50,19.00
2018,08,11,10,51,19.10
2018,08,11,10,52,19.10
2018,08,11,10,53,19.10
2018,08,11,10,54,19.10
2018,08,11,10,55,19.00
2018,08,11,10,56,19.10
2018,08,11,10,57,19.10
2018,08,11,10,58,19.10
2018,08,11,10,59,19.10
2018,08,11,11,00,19.20
2018,08,11,11,01,19.20
2018,08,11,11,02,19.30
2018,08,11,11,03,19.30
2018,08,11,11,04,19.30
2018,08,11,11,05,19.40
2018,08,11,11,06,19.40
2018,08,11,11,07,19.50
2018,08,11,11,08,19.50
2018,08,11,11,09,19.50
2018,08,11,11,10,19.40
2018,08,11,11,11,19.40
2018,08,11,11,12,19.40
2018,08,11,11,13,19.40
2018,08,11,11,14,19.40
2018,08,11,11,15,19.50
2018,08,11,11,16,19.50
2018,08,11,11,17,19.50
2018,08,11,11,18,19.50
2018,08,11,11,19,19.60
2018,08,11,11,20,19.60
2018,08,11,11,21,19.60
2018,08,11,11,22,19.60
2018,08,11,11,23,19.60
2018,08,11,11,24,19.60
2018,08,11,11,25,19.60
2018,08,11,11,26,19.60
2018,08,11,11,27,19.50
2018,08,11,11,28,19.50
2018,08,11,11,29,19.50
2018,08,11,11,30,19.50
2018,08,11,11,31,19.50
2018,08,11,11,32,19.50
2018,08,11,11,33,19.60
2018,08,11,11,34,19.60
2018,08,11,11,35,19.60
2018,08,11,11,36,19.60
2018,08,11,11,37,19.60
2018,08,11,11,38,19.60
2018,08,11,11,39,19.60
2018,08,11,11,40,19.60
2018,08,11,11,41,19.60
2018,08,11,11,42,19.60
2018,08,11,11,43,19.70
2018,08,11,11,44,19.70
2018,08,11,11,45,19.70
2018,08,11,11,46,19.70
2018,08,11,11,47,19.70
2018,08,11,11,48,19.70
2018,08,11,11,49,19.70
2018,08,11,11,50,19.70
2018,08,11,11,51,19.80
2018,08,11,11,52,19.80
2018,08,11,11,53,19.80
2018,08,11,11,54,19.80
2018,08,11,11,55,19.80
2018,08,11,11,56,19.70
2018,08,11,11,57,19.70
2018,08,11,11,58,19.70
2018,08,11,11,59,19.70
2018,08,11,12,00,19.70
2018,08,11,12,01,19.70
2018,08,11,12,02,19.70
2018,08,11,12,03,19.70
2018,08,11,12,04,19.70
2018,08,11,12,05,19.70
2018,08,11,12,06,19.80
2018,08,11,12,07,19.80
2018,08,11,12,08,19.90
2018,08,11,12,09,19.90
2018,08,11,12,10,20.00
2018,08,11,12,11,20.00
2018,08,11,12,12,20.10
2018,08,11,12,13,20.10
2018,08,11,12,14,20.10
2018,08,11,12,15,20.10
2018,08,11,12,16,20.10
2018,08,11,12,17,20.10
2018,08,11,12,18,20.20
2018,08,11,12,19,20.20
2018,08,11,12,20,20.30
2018,08,11,12,21,20.20
2018,08,11,12,22,20.10
2018,08,11,12,23,20.00
2018,08,11,12,24,20.00
2018,08,11,12,25,19.90
2018,08,11,12,26,19.90
2018,08,11,12,27,19.90
2018,08,11,12,28,20.00
2018,08,11,12,29,20.00
2018,08,11,12,30,19.90
2018,08,11,12,31,19.90
2018,08,11,12,32,19.80
2018,08,11,12,33,19.80
2018,08,11,12,34,19.70
2018,08,11,12,35,19.70
2018,08,11,12,36,19.60
2018,08,11,12,37,19.50
2018,08,11,12,38,19.50
2018,08,11,12,39,19.40
2018,08,11,12,40,19.50
2018,08,11,12,41,19.40
2018,08,11,12,42,19.50
2018,08,11,12,43,19.40
2018,08,11,12,44,19.40
2018,08,11,12,45,19.40
2018,08,11,12,46,19.30
2018,08,11,12,47,19.30
2018,08,11,12,48,19.40
2018,08,11,12,49,19.50
2018,08,11,12,50,19.50
2018,08,11,12,51,19.60
2018,08,11,12,52,19.60
2018,08,11,12,53,19.70
2018,08,11,12,54,19.70
2018,08,11,12,55,19.70
2018,08,11,12,56,19.70
2018,08,11,12,57,19.70
2018,08,11,12,58,19.60
2018,08,11,12,59,19.60
2018,08,11,13,00,19.60
2018,08,11,13,01,19.50
2018,08,11,13,02,19.50
2018,08,11,13,03,19.50
2018,08,11,13,04,19.50
2018,08,11,13,05,19.50
2018,08,11,13,06,19.60
2018,08,11,13,07,19.80
2018,08,11,13,08,19.90
2018,08,11,13,09,20.00
2018,08,11,13,10,20.10
2018,08,11,13,11,20.10
2018,08,11,13,12,20.20
2018,08,11,13,13,20.30
2018,08,11,13,14,20.40
2018,08,11,13,15,20.40
2018,08,11,13,16,20.30
2018,08,11,13,17,20.30
2018,08,11,13,18,20.30
2018,08,11,13,19,20.20
2018,08,11,13,20,20.20
2018,08,11,13,21,20.30
2018,08,11,13,22,20.40
2018,08,11,13,23,20.40
2018,08,11,13,24,20.40
2018,08,11,13,25,20.50
2018,08,11,13,26,20.60
2018,08,11,13,27,20.60
2018,08,11,13,28,20.70
2018,08,11,13,29,20.80
2018,08,11,13,30,20.80
2018,08,11,13,31,20.80
2018,08,11,13,32,20.80
2018,08,11,13,33,20.70
2018,08,11,13,34,20.70
2018,08,11,13,35,20.70
2018,08,11,13,36,20.70
2018,08,11,13,37,20.60
2018,08,11,13,38,20.60
2018,08,11,13,39,20.60
2018,08,11,13,40,20.60
2018,08,11,13,41,20.60
2018,08,11,13,42,20.60
2018,08,11,13,43,20.50
2018,08,11,13,44,20.50
2018,08,11,13,45,20.40
2018,08,11,13,46,20.40
2018,08,11,13,47,20.40
2018,08,11,13,48,20.50
2018,08,11,13,49,20.60
2018,08,11,13,50,20.70
2018,08,11,13,51,20.90
2018,08,11,13,52,20.90
2018,08,11,13,53,21.00
2018,08,11,13,54,21.00
2018,08,11,13,55,21.10
2018,08,11,13,56,21.10
2018,08,11,13,57,21.20
2018,08,11,13,58,21.20
2018,08,11,13,59,21.10
2018,08,11,14,00,21.00
2018,08,11,14,01,20.90
2018,08,11,14,02,20.90
2018,08,11,14,03,20.80
2018,08,11,14,04,20.80
2018,08,11,14,05,20.80
2018,08,11,14,06,20.80
2018,08,11,14,07,20.80
2018,08,11,14,08,20.80
2018,08,11,14,09,20.70
2018,08,11,14,10,20.70
2018,08,11,14,11,20.70
2018,08,11,14,12,20.70
2018,08,11,14,13,20.70
2018,08,11,14,14,20.70
2018,08,11,14,15,20.70
2018,08,11,14,16,20.70
2018,08,11,14,17,20.70
2018,08,11,14,18,20.70
2018,08,11,14,19,20.70
2018,08,11,14,20,20.70
2018,08,11,14,21,20.80
2018,08,11,14,22,20.80
2018,08,11,14,23,20.90
2018,08,11,14,24,20.90
2018,08,11,14,25,20.90
2018,08,11,14,26,21.00
2018,08,11,14,27,21.10
2018,08,11,14,28,21.20
2018,08,11,14,29,21.30
2018,08,11,14,30,21.30
2018,08,11,14,31,21.50
2018,08,11,14,32,21.60
2018,08,11,14,33,21.70
2018,08,11,14,34,21.80
2018,08,11,14,35,21.90
2018,08,11,14,36,21.90
2018,08,11,14,37,21.90
2018,08,11,14,38,21.80
2018,08,11,14,39,21.70
2018,08,11,14,40,21.60
2018,08,11,14,41,21.50
2018,08,11,14,42,21.40
2018,08,11,14,43,21.30
2018,08,11,14,44,21.10
2018,08,11,14,45,21.00
2018,08,11,14,46,20.90
2018,08,11,14,47,20.70
2018,08,11,14,48,20.70
2018,08,11,14,49,20.70
2018,08,11,14,50,20.70
2018,08,11,14,51,20.80
2018,08,11,14,52,20.80
2018,08,11,14,53,20.80
2018,08,11,14,54,20.80
2018,08,11,14,55,20.70
2018,08,11,14,56,20.70
2018,08,11,14,57,20.60
2018,08,11,14,58,20.60
2018,08,11,14,59,20.50
2018,08,11,15,00,20.50
2018,08,11,15,01,20.50
2018,08,11,15,02,20.50
2018,08,11,15,03,20.60
2018,08,11,15,04,20.60
2018,08,11,15,05,20.70
2018,08,11,15,06,20.70
2018,08,11,15,07,20.60
2018,08,11,15,08,20.60
2018,08,11,15,09,20.50
2018,08,11,15,10,20.40
2018,08,11,15,11,20.40
2018,08,11,15,12,20.40
2018,08,11,15,13,20.40
2018,08,11,15,14,20.40
2018,08,11,15,15,20.40
2018,08,11,15,16,20.50
2018,08,11,15,17,20.50
2018,08,11,15,18,20.50
2018,08,11,15,19,20.60
2018,08,11,15,20,20.60
2018,08,11,15,21,20.60
2018,08,11,15,22,20.50
2018,08,11,15,23,20.50
2018,08,11,15,24,20.40
2018,08,11,15,25,20.30
2018,08,11,15,26,20.40
2018,08,11,15,27,20.30
2018,08,11,15,28,20.30
2018,08,11,15,29,20.30
2018,08,11,15,30,20.30
2018,08,11,15,31,20.40
2018,08,11,15,32,20.40
2018,08,11,15,33,20.50
2018,08,11,15,34,20.50
2018,08,11,15,35,20.50
2018,08,11,15,36,20.40
2018,08,11,15,37,20.40
2018,08,11,15,38,20.30
2018,08,11,15,39,20.30
2018,08,11,15,40,20.30
2018,08,11,15,41,20.30
2018,08,11,15,42,20.40
2018,08,11,15,43,20.50
2018,08,11,15,44,20.50
2018,08,11,15,45,20.60
2018,08,11,15,46,20.70
2018,08,11,15,47,20.80
2018,08,11,15,48,20.80
2018,08,11,15,49,20.90
2018,08,11,15,50,20.90
2018,08,11,15,51,21.00
2018,08,11,15,52,21.10
2018,08,11,15,53,21.20
2018,08,11,15,54,21.30
2018,08,11,15,55,21.30
2018,08,11,15,56,21.30
2018,08,11,15,57,21.20
2018,08,11,15,58,21.10
2018,08,11,15,59,20.90
2018,08,11,16,00,20.80
2018,08,11,16,01,20.70
2018,08,11,16,02,20.70
2018,08,11,16,03,20.70
2018,08,11,16,04,20.70
2018,08,11,16,05,20.70
2018,08,11,16,06,20.70
2018,08,11,16,07,20.80
2018,08,11,16,08,20.80
2018,08,11,16,09,20.90
2018,08,11,16,10,20.90
2018,08,11,16,11,20.90
2018,08,11,16,12,20.90
2018,08,11,16,13,20.90
2018,08,11,16,14,20.90
2018,08,11,16,15,20.90
2018,08,11,16,16,20.90
2018,08,11,16,17,21.10
2018,08,11,16,18,21.20
2018,08,11,16,19,21.20
2018,08,11,16,20,21.20
2018,08,11,16,21,21.20
2018,08,11,16,22,21.20
2018,08,11,16,23,21.20
2018,08,11,16,24,21.30
2018,08,11,16,25,21.30
2018,08,11,16,26,21.30
2018,08,11,16,27,21.30
2018,08,11,16,28,21.30
2018,08,11,16,29,21.30
2018,08,11,16,30,21.30
2018,08,11,16,31,21.30
2018,08,11,16,32,21.20
2018,08,11,16,33,21.20
2018,08,11,16,34,21.20
2018,08,11,16,35,21.10
2018,08,11,16,36,21.00
2018,08,11,16,37,20.90
2018,08,11,16,38,20.90
2018,08,11,16,39,20.90
2018,08,11,16,40,21.00
2018,08,11,16,41,21.00
2018,08,11,16,42,21.10
2018,08,11,16,43,21.10
2018,08,11,16,44,21.20
2018,08,11,16,45,21.20
2018,08,11,16,46,21.20
2018,08,11,16,47,21.10
2018,08,11,16,48,21.10
2018,08,11,16,49,21.00
2018,08,11,16,50,21.00
2018,08,11,16,51,20.90
2018,08,11,16,52,20.90
2018,08,11,16,53,20.90
2018,08,11,16,54,20.90
2018,08,11,16,55,20.90
2018,08,11,16,56,20.90
2018,08,11,16,57,20.90
2018,08,11,16,58,20.90
2018,08,11,16,59,20.90
2018,08,11,17,00,20.90
2018,08,11,17,01,21.00
2018,08,11,17,02,21.00
2018,08,11,17,03,21.10
2018,08,11,17,04,21.10
2018,08,11,17,05,21.20
2018,08,11,17,06,21.20
2018,08,11,17,07,21.20
2018,08,11,17,08,21.20
2018,08,11,17,09,21.10
2018,08,11,17,10,21.00
2018,08,11,17,11,20.90
2018,08,11,17,12,20.90
2018,08,11,17,13,20.90
2018,08,11,17,14,21.00
2018,08,11,17,15,21.00
2018,08,11,17,16,21.10
2018,08,11,17,17,21.10
2018,08,11,17,18,21.00
2018,08,11,17,19,21.10